| time (UTC) | temp F | wind direction | speed MPH | gust MPH | rain 1hr in | rain 24hr in | rain mn in | humidity % | barometer mb |
| 20260503203738 | 58 | 87 | 0.0 | 0.0 | 0.00 | 0.00 | 0.00 | 80 | 1013.0 |
| 20260503200238 | 58 | 99 | 0.0 | 0.0 | 0.00 | 0.00 | 0.00 | 79 | 1013.0 |
| 20260503193738 | 58 | 99 | 0.0 | 0.0 | 0.00 | 0.00 | 0.00 | 78 | 1012.9 |
| 20260503190737 | 59 | 98 | 0.0 | 0.0 | 0.00 | 0.00 | 0.00 | 78 | 1012.4 |
| 20260503190238 | 59 | 102 | 0.0 | 0.0 | 0.00 | 0.00 | 0.00 | 78 | 1012.4 |
| 20260503183738 | 59 | 94 | 0.0 | 0.0 | 0.00 | 0.00 | 0.00 | 78 | 1012.7 |
| 20260503183237 | 59 | 83 | 0.0 | 5.0 | 0.00 | 0.00 | 0.00 | 78 | 1012.5 |
| 20260503180238 | 60 | 105 | 1.0 | 9.0 | 0.00 | 0.00 | 0.00 | 79 | 1012.4 |
| 20260503173737 | 61 | 142 | 0.0 | 5.0 | 0.00 | 0.00 | 0.00 | 78 | 1012.4 |
| 20260503170237 | 62 | 124 | 2.0 | 12.0 | 0.00 | 0.00 | 0.00 | 75 | 1012.1 |
| 20260503150738 | 63 | 123 | 1.0 | 3.0 | 0.00 | 0.00 | 0.00 | 68 | 1012.1 |
| 20260503150237 | 63 | 102 | 1.0 | 6.0 | 0.00 | 0.00 | 0.00 | 67 | 1012.1 |
| 20260503140237 | 65 | 115 | 0.0 | 0.0 | 0.00 | 0.00 | 0.00 | 62 | 1012.7 |
| 20260503110737 | 64 | 122 | 0.0 | 0.0 | 0.00 | 0.00 | 0.00 | 68 | 1014.3 |
| 20260503110236 | 65 | 108 | 0.0 | 0.0 | 0.00 | 0.00 | 0.00 | 68 | 1014.2 |
| 20260503090237 | 64 | 114 | 0.0 | 7.0 | 0.00 | 0.00 | 0.00 | 69 | 1014.7 |
| 20260503080737 | 61 | 99 | 0.0 | 0.0 | 0.00 | 0.00 | 0.00 | 74 | 1015.0 |
| 20260503070236 | 56 | 72 | 0.0 | 0.0 | 0.00 | 0.01 | 0.00 | 82 | 1015.4 |
| 20260503060236 | 54 | 75 | 0.0 | 0.0 | 0.00 | 0.01 | 0.00 | 85 | 1015.5 |
| 20260503053736 | 54 | 74 | 0.0 | 0.0 | 0.00 | 0.01 | 0.00 | 84 | 1015.5 |
| 20260503050736 | 54 | 48 | 0.0 | 0.0 | 0.00 | 0.02 | 0.00 | 84 | 1015.3 |
| 20260503050236 | 54 | 38 | 0.0 | 0.0 | 0.00 | 0.02 | 0.00 | 84 | 1015.3 |
| 20260503043236 | 54 | 48 | 0.0 | 0.0 | 0.00 | 0.02 | 0.00 | 84 | 1015.0 |
| 20260503040736 | 55 | 73 | 0.0 | 0.0 | 0.00 | 0.02 | 0.00 | 83 | 1015.2 |
| 20260503033236 | 55 | 73 | 0.0 | 0.0 | 0.00 | 0.02 | 0.00 | 83 | 1015.5 |
| 20260503030736 | 56 | 309 | 0.0 | 0.0 | 0.00 | 0.02 | 0.00 | 83 | 1015.6 |
| 20260503030236 | 56 | 309 | 0.0 | 0.0 | 0.00 | 0.02 | 0.00 | 82 | 1015.7 |
| 20260503023736 | 56 | 309 | 0.0 | 0.0 | 0.00 | 0.02 | 0.00 | 82 | 1016.0 |
| 20260503020236 | 56 | 71 | 0.0 | 0.0 | 0.00 | 0.02 | 0.00 | 82 | 1015.9 |
| 20260503013236 | 57 | 71 | 0.0 | 0.0 | 0.00 | 0.02 | 0.00 | 82 | 1015.9 |
| 20260503010736 | 57 | 71 | 0.0 | 0.0 | 0.00 | 0.02 | 0.00 | 82 | 1016.2 |
| 20260503000735 | 57 | 68 | 0.0 | 0.0 | 0.00 | 0.02 | 0.00 | 81 | 1016.9 |
| 20260503000235 | 57 | 68 | 0.0 | 0.0 | 0.00 | 0.02 | 0.00 | 81 | 1016.9 |
| 20260502233736 | 57 | 67 | 0.0 | 0.0 | 0.00 | 0.02 | 0.00 | 81 | 1017.4 |
| 20260502230735 | 57 | 67 | 0.0 | 0.0 | 0.00 | 0.02 | 0.00 | 81 | 1017.6 |
| 20260502230236 | 57 | 67 | 0.0 | 0.0 | 0.00 | 0.02 | 0.00 | 81 | 1017.6 |
| 20260502220235 | 57 | 80 | 0.0 | 0.0 | 0.00 | 0.02 | 0.00 | 82 | 1017.9 |
| 20260502213735 | 58 | 79 | 0.0 | 0.0 | 0.00 | 0.02 | 0.02 | 81 | 1018.0 |
| 20260502210235 | 58 | 80 | 0.0 | 0.0 | 0.00 | 0.02 | 0.02 | 80 | 1018.3 |